Find Starlink 4493

NORAD ID: 53533 Int'l Des: 2022-101 Owner: SPXS Country: US Constellation: starlink operational
LEOCIRCULAR

現在のビュー

3D地球を読み込み中...

About Starlink 4493

Starlink 4493 (NORAD 53533) is a starlink constellation satellite (v1.5) launched Aug 19, 2022 by SPXS of US. It operates in LEO, CIRCULAR orbit with a mass of 300.00 kg.

Starlink 4493について

説明を読み込み中...

次回通過

Passes for default location (London). Set your location on the main map for personalized predictions.

高度履歴

Loading altitude history...

軌道要素

1 53533U 22101G 26168.88668992 .00000440 00000-0 45746-4 0 9992
2 53533 53.1605 344.2063 0001294 86.9364 273.1775 15.08835777211293
Epoch: Jun 17, 2026 • Age: 19 hours

現在のステータス

高度 539.8 km
速度 7.60 km/s
衛星直下点 19.37°N, 158.11°W
打ち上げ日 Aug 19, 2022
運用期間 3.8 years
タイプ internet

技術仕様

分類 Payload
質量 300.00 kg
乾燥質量 290.00 kg
総質量 300.00 kg
長さ 0.20 m
直径 2.80 m
スパン 9.00 m
形状 Box + pan
製造者 SPXS
バスタイプ Starlink
フェーズステータス In Orbit
所有者/国 SPXS/US

Most Searched